Date,TemperatureHighF,TemperatureAvgF,TemperatureLowF,DewpointHighF,DewpointAvgF,DewpointLowF,HumidityHigh,HumidityAvg,HumidityLow,PressureMaxIn,PressureMinIn,WindSpeedMaxMPH,WindSpeedAvgMPH,GustSpeedMaxMPH,PrecipitationSumIn
2013-3-1,31.4,24.9,15.6,20.0,16.9,12.0,84,72,61,30.38,30.25,7,1,11,0.00
2013-3-2,33.1,20.1,5.7,15.0,9.9,4.0,92,68,38,30.40,30.21,3,0,6,0.00
2013-3-3,35.6,25.1,11.4,16.0,11.8,6.0,85,59,38,30.21,30.02,8,1,10,0.00
2013-3-4,27.6,25.6,23.4,23.0,18.1,10.0,93,75,48,30.07,29.98,4,1,10,0.00
2013-3-5,30.7,25.8,20.8,27.0,23.3,18.0,95,90,79,30.33,30.01,1,0,5,0.00
2013-3-6,29.4,22.2,11.8,20.0,17.2,10.0,93,82,68,30.45,30.33,0,0,0,0.00
2013-3-7,36.6,20.6,4.8,22.0,13.9,2.0,93,77,53,30.44,30.33,6,0,9,0.04
2013-3-8,41.1,30.6,16.6,33.0,25.0,14.0,93,80,65,30.37,30.11,5,1,11,0.25
2013-3-9,37.3,35.4,33.0,36.0,34.1,29.0,98,95,80,30.11,29.71,6,1,11,0.68
2013-3-10,35.5,33.6,30.4,35.0,30.6,26.0,97,88,83,29.96,29.79,7,2,11,0.02
2013-3-11,31.1,28.2,22.8,26.0,23.4,19.0,87,82,72,29.87,29.76,7,2,11,0.00
2013-3-12,30.1,25.2,21.1,20.0,16.6,13.0,86,71,52,30.21,29.85,11,2,17,0.00
2013-3-13,35.3,23.6,13.9,18.0,14.0,11.0,88,69,41,30.41,30.21,6,1,10,0.00
2013-3-14,44.7,32.5,23.6,30.0,25.3,19.0,93,76,57,30.29,30.03,5,0,7,0.08
2013-3-15,34.5,31.2,23.8,32.0,28.4,22.0,94,89,81,30.03,29.85,7,1,7,0.02
2013-3-16,26.5,21.3,13.7,22.0,13.8,5.0,93,74,56,30.28,29.92,7,2,13,0.00
2013-3-17,30.2,18.8,4.4,20.0,7.8,-1.0,79,63,46,30.32,29.93,10,1,12,0.00
2013-3-18,29.5,22.2,12.8,28.0,17.4,7.0,94,82,71,29.93,29.62,15,4,27,0.00
2013-3-19,23.1,14.1,6.9,9.0,3.8,-2.0,80,65,48,30.24,29.84,10,5,18,0.00
2013-3-20,22.4,13.6,6.2,7.0,1.8,-2.0,69,60,49,30.26,30.16,12,3,16,0.00
2013-3-21,30.1,16.3,2.5,12.0,6.1,-2.0,87,66,45,30.18,30.09,6,0,6,0.03
2013-3-22,39.9,22.6,6.2,18.0,12.0,3.0,92,67,38,30.14,30.07,2,0,6,0.03
2013-3-23,40.4,29.4,14.8,22.0,17.9,12.0,92,64,40,30.18,30.11,4,0,5,0.00
2013-3-24,33.3,30.1,28.2,26.0,23.0,21.0,84,75,67,30.13,30.00,7,1,11,0.00
2013-3-25,39.6,31.0,21.5,23.0,19.9,16.0,80,65,48,30.23,30.06,6,1,10,0.00
2013-3-26,40.8,33.0,25.3,25.0,22.2,19.0,81,66,48,30.32,30.23,3,1,7,0.00
2013-3-27,45.7,33.8,19.4,26.0,20.3,15.0,89,61,37,30.36,30.30,4,0,5,0.00
2013-3-28,48.6,33.1,18.2,27.0,21.6,16.0,95,67,36,30.37,30.30,6,0,7,0.00
2013-3-29,52.3,39.4,24.0,36.0,31.0,22.0,93,73,49,30.31,30.09,4,0,9,0.00
2013-3-30,54.1,43.4,36.5,44.0,38.2,33.0,96,82,61,30.09,29.84,5,1,11,0.41
2013-3-31,39.6,34.7,24.7,33.0,24.7,14.0,93,69,39,30.09,29.79,10,3,18,0.00